Location: Unspecified
(0.0000°N, 0.0000°E)
Time: 21:46:09
(UTC+00:00)

NOSS 3-1 (A) - Pass Details

Date: 25 April 2019
Orbit: 778 x 1434 km, 63.4° (Epoch: 13 May)

Event Time Altitude Azimuth Distance (km) Brightness Sun altitude
Rises 04:42:52 0° 334° (NNW) 4,398 6.8 -18.3°
Reaches altitude 10° 04:45:42 10° 333° (NNW) 3,472 6.2 -17.6°
Maximum altitude 04:54:25 78° 248° (WSW) 1,464 4.2 -15.5°
Drops below altitude 10° 05:03:09 10° 162° (SSE) 3,470 6.4 -13.4°
Sets 05:05:59 0° 160° (SSE) 4,395 7.0 -12.7°
